#timestamp,LO_Frequency,Hit,StdDev 
1636736415.7,286046992.3,Y
1636736435.5,286046998.0,P
1636736455.3,286046996.0,N
1636736475.2,286046992.0,P
1636736495.9,286046990.6,Y
1636736515.7,286046993.4,P
1636736535.6,286046994.8,P
1636736555.4,286046992.5,P
1636736575.2,286046990.9,Y
1636736595.1,286046995.7,P
1636736596.0,286046995.7,P
1636736615.8,286046993.5,P
1636736635.6,286046993.0,Y
1636736655.5,286046997.6,P
1636736675.3,286046993.9,P
1636736695.1,286046992.4,P
1636736715.9,286046991.4,Y
1636736735.7,286046996.4,P
1636736755.6,286046994.2,P
1636736775.4,286046992.4,P
1636736795.2,286046990.5,Y
1636736815.1,286046996.3,P
1636736816.0,286046996.3,P
1636736835.8,286046994.2,P
1636736855.6,286046992.9,Y
1636736875.5,286046995.5,P
1636736895.3,286046994.4,P
1636736915.1,286046992.2,P
1636736935.9,286046990.1,Y
1636736955.7,286046993.3,P
1636736975.5,286046991.7,P
1636736995.4,286046990.5,P
1636737015.2,286046991.3,Y
1636737035.0,286046997.6,P
1636737035.9,286046997.6,N
1636737055.8,286046996.2,N
1636737075.6,286046994.7,N
1636737095.5,286046992.9,Y
1636737115.3,286046995.9,P
1636737135.1,286046994.2,P
1636737155.9,286046990.1,P
1636737175.7,286046989.0,Y
1636737195.5,286046993.7,P
1636737215.4,286046994.2,P
1636737235.2,286046992.8,P
1636737255.0,286046990.4,Y
1636737255.9,286046990.4,P
1636737275.8,286046995.3,N
1636737295.6,286046996.3,N
1636737315.4,286046991.8,Y
1636737335.3,286046997.8,P
1636737355.1,286046993.7,P
1636737375.8,286046994.5,N
1636737395.7,286046992.2,Y
1636737415.5,286046995.7,P
1636737435.3,286046995.9,P
1636737455.2,286046993.8,P
1636737475.0,286046994.0,Y
1636737475.9,286046994.0,P
1636737495.7,286046999.1,N
1636737515.6,286046996.6,N
1636737535.4,286046996.8,N
1636737555.2,286046997.2,N
1636737575.1,286046997.5,N
1636737576.0,286046997.5,N
1636737595.8,286046997.9,N
1636737615.6,286046996.7,N
1636737635.5,286046997.1,N
1636737655.3,286046997.5,N
1636737675.1,286046997.7,N
1636737695.9,286046997.2,N
1636737715.7,286046997.0,N
1636737735.5,286046999.4,N
1636737755.4,286047001.2,N
1636737775.2,286047001.0,N
1636737795.0,286047001.2,N
1636737795.9,286047001.2,N
1636737815.8,286047000.6,N
1636737835.6,286047000.0,N
1636737855.5,286047002.7,N
1636737875.3,286047001.6,N
1636737895.1,286047003.9,N
1636737915.9,286047005.0,N
1636737935.7,286047004.7,N
1636737955.5,286047005.1,N
1636737975.4,286047006.9,N
1636737995.2,286047008.4,N
1636738015.0,286047010.7,Y
1636738015.9,286047010.7,P
1636738035.8,286047011.5,N
1636738055.6,286047011.1,N
1636738075.4,286047013.6,N
1636738095.3,286047015.2,Y
1636738115.1,286047004.9,P
1636738116.0,286047004.9,N
1636738135.8,286047006.7,P
1636738155.7,286047008.3,Y
1636738175.5,286047004.1,P
1636738195.3,286047002.9,N
1636738215.2,286047004.5,P
1636738235.0,286047008.4,Y
1636738235.9,286047008.4,P
1636738255.7,286047005.8,N
1636738275.6,286047006.7,P
1636738295.4,286047009.1,Y
1636738315.2,286047004.1,P
1636738335.1,286047004.7,P
1636738336.0,286047004.7,P
1636738355.8,286047007.5,Y
1636738375.7,286047001.5,P
1636738395.5,286047003.7,N
1636738415.3,286047007.6,P
1636738435.2,286047008.8,Y
1636738455.9,286047004.7,P
1636738475.7,286047006.6,P
1636738495.6,286047010.6,P
1636738515.4,286047009.9,Y
1636738535.2,286047006.0,P
1636738555.1,286047006.4,P
1636738556.0,286047006.4,P
1636738575.8,286047009.2,Y
1636738595.6,286047001.9,P
1636738615.5,286047001.7,N
1636738635.3,286047003.4,N
1636738655.1,286047005.5,N
1636738675.9,286047006.8,Y
1636738695.7,286047005.3,P
1636738715.5,286047004.8,P
1636738735.4,286047006.1,P
1636738755.2,286047010.5,Y
1636738775.0,286047007.6,P
1636738775.9,286047007.6,P
1636738795.8,286047007.0,P
1636738815.6,286047008.8,Y
1636738835.5,286047002.3,P
1636738855.3,286047003.3,N
1636738875.1,286047004.7,N
1636738895.9,286047007.6,Y
1636738915.7,286047001.4,P
1636738935.5,286047004.4,P
1636738955.4,286047003.5,N
1636738975.2,286047005.0,Y
1636738995.0,286047004.1,P
1636738995.9,286047004.1,P
1636739015.8,286047004.8,P
1636739035.6,286047009.0,Y
1636739055.4,286047007.5,P
1636739075.3,286047007.9,P
1636739095.1,286047011.1,P
1636739115.8,286047015.2,Y
1636739135.7,286047010.5,P
1636739155.5,286047013.5,P
1636739175.3,286047017.1,P
1636739195.2,286047017.9,Y
1636739215.0,286047010.7,P
1636739215.9,286047010.7,P
1636739235.7,286047011.1,P
1636739255.6,286047015.3,Y
1636739275.4,286047009.2,P
1636739295.3,286047012.2,P
1636739315.1,286047015.3,P
1636739316.0,286047015.3,Y
1636739335.8,286047007.5,P
1636739355.7,286047010.3,P
1636739375.5,286047013.2,P
1636739395.3,286047016.5,Y
1636739415.2,286047009.0,P
1636739435.9,286047009.3,P
1636739455.7,286047013.8,P
1636739475.6,286047012.9,Y
1636739495.4,286047005.6,P
1636739515.2,286047007.5,N
1636739535.1,286047008.9,P
1636739536.0,286047008.9,Y
1636739555.8,286047003.1,P
1636739575.6,286047007.2,N
1636739595.5,286047009.1,P
1636739615.3,286047010.2,Y
1636739635.1,286047005.6,P
1636739655.9,286047004.6,P
1636739675.7,286047009.0,P
1636739695.5,286047009.3,Y
1636739715.4,286047007.1,P
1636739735.2,286047006.2,P
1636739755.0,286047010.6,P
1636739755.9,286047010.6,Y
1636739775.8,286047005.5,P
1636739795.6,286047006.1,P
1636739815.4,286047009.8,P
1636739835.3,286047011.1,Y
1636739855.1,286047007.0,P
1636739875.8,286047008.2,P
1636739895.7,286047011.7,P
1636739915.5,286047013.3,Y
1636739935.3,286047007.3,P
1636739955.2,286047008.3,P
1636739975.0,286047009.3,P
1636739975.9,286047009.3,Y
1636739995.8,286047003.7,P
